Thiruvananthapuram Airport, India

5:33 PM IST on August 25, 2019 (GMT +0530)
Trivandrum

Weather History for VOTV - July, 2019

Change the Weather History Date:

Monday, July 15, 2019

  Actual Average Record
Temperature  
Mean Temperature 82 °F -  
Max Temperature 86 °F 83 °F 89 °F (1997)
Min Temperature 77 °F 75 °F 73 °F (2011)
Cooling Degree Days 16    
Growing Degree Days 32 (Base 50)    
Moisture  
Dew Point 76 °F    
Average Humidity 85    
Maximum Humidity 89    
Minimum Humidity 74    
Precipitation  
Precipitation 0.00 in 0.21 in - ()
Sea Level Pressure  
Sea Level Pressure 29.79 in    
Wind  
Wind Speed 6 mph ()    
Max Wind Speed 12 mph    
Max Gust Speed -    
Visibility 2.8 miles    
Events      
Averages and records for this station are not official NWS values.
T = Trace of Precipitation, MM = Missing Value Source: Averaged Metar Reports

Daily Weather History Graph

Daily Weather History Graph

Search for Another Location

Airport or City:

Astronomy

Jul. 15, 2019 Rise Set
Actual Time 6:10 AM IST 6:45 PM IST
Civil Twilight 5:48 AM IST 7:07 PM IST
Nautical Twilight 5:21 AM IST 7:34 PM IST
Astronomical Twilight 4:55 AM IST 8:01 PM IST
Moon 5:33 PM IST (7/15) 4:38 AM IST (7/15)
Length of Visible Light 13h 19m
Length of Day
12h 34m
Waxing Gibbous, 97% of the Moon is Illuminated
Jul 15
Waxing Gibbous
Jul 17
Full
Jul 25
Last Quarter
Aug 1
New
Aug 7
First Quarter

Hourly Weather History & Observations

Time (IST) Temp. Heat Index Dew Point Humidity Pressure Visibility Wind Dir Wind Speed Gust Speed Precip Events Conditions
12:00 AM 78.8 °F - 75.2 °F 89% 29.83 in 2.5 mi North 5.8 mph - N/A   Scattered Clouds
12:30 AM 78.8 °F - 75.2 °F 89% 29.83 in 2.5 mi North 5.8 mph - N/A   Scattered Clouds
1:00 AM 78.8 °F - 75.2 °F 89% 29.83 in 2.5 mi North 4.6 mph - N/A   Scattered Clouds
1:30 AM 78.8 °F - 75.2 °F 89% 29.80 in 2.5 mi North 4.6 mph - N/A   Scattered Clouds
2:00 AM 78.8 °F - 75.2 °F 89% 29.80 in 2.5 mi North 3.5 mph - N/A   Scattered Clouds
2:30 AM 78.8 °F - 75.2 °F 89% 29.80 in 2.5 mi North 3.5 mph - N/A   Scattered Clouds
3:00 AM 78.8 °F - 75.2 °F 89% 29.80 in 2.5 mi NNW 4.6 mph - N/A   Scattered Clouds
3:30 AM 78.8 °F - 75.2 °F 89% 29.77 in 2.5 mi North 3.5 mph - N/A   Scattered Clouds
4:00 AM 78.8 °F - 75.2 °F 89% 29.77 in 1.9 mi North 3.5 mph - N/A   Scattered Clouds
4:30 AM 78.8 °F - 75.2 °F 89% 29.77 in 1.9 mi NW 3.5 mph - N/A   Scattered Clouds
5:00 AM 78.8 °F - 75.2 °F 89% 29.77 in 1.9 mi North 4.6 mph - N/A   Scattered Clouds
5:30 AM 78.8 °F - 75.2 °F 89% 29.77 in 1.9 mi North 3.5 mph - N/A   Scattered Clouds
6:00 AM 78.8 °F - 75.2 °F 89% 29.77 in 1.9 mi North 4.6 mph - N/A   Scattered Clouds
6:30 AM 78.8 °F - 75.2 °F 89% 29.80 in 1.9 mi North 4.6 mph - N/A   Partly Cloudy
7:00 AM 78.8 °F - 75.2 °F 89% 29.80 in 2.5 mi North 5.8 mph - N/A   Partly Cloudy
7:30 AM 78.8 °F - 75.2 °F 89% 29.80 in 2.5 mi North 5.8 mph - N/A   Scattered Clouds
8:00 AM 80.6 °F 86.2 °F 75.2 °F 84% 29.80 in 2.5 mi North 8.1 mph - N/A   Scattered Clouds
8:30 AM 83 °F - 76 °F 74% 29.82 in 2 mi NW 6.9 mph - -   Haze
8:30 AM 82.4 °F 89.5 °F 75.2 °F 79% 29.80 in 2.5 mi North 6.9 mph - N/A   Haze
9:00 AM 82.4 °F 89.5 °F 75.2 °F 79% 29.83 in 3.1 mi North 6.9 mph - N/A   Haze
9:30 AM 84.2 °F 92.3 °F 75.2 °F 74% 29.83 in 3.1 mi North 9.2 mph - N/A   Haze
10:00 AM 84.2 °F 92.3 °F 75.2 °F 74% 29.83 in 3.1 mi North 9.2 mph - N/A   Haze
10:30 AM 84.2 °F 94.1 °F 77.0 °F 79% 29.83 in 3.1 mi WNW 9.2 mph - N/A   Haze
11:00 AM 86.0 °F 96.9 °F 77.0 °F 74% 29.83 in 3.1 mi NW 8.1 mph - N/A   Haze
11:30 AM 84.2 °F 94.1 °F 77.0 °F 79% 29.83 in 3.7 mi NW 11.5 mph - N/A   Scattered Clouds
12:00 PM 86.0 °F 96.9 °F 77.0 °F 74% 29.83 in 3.7 mi WNW 10.4 mph - N/A   Scattered Clouds
12:30 PM 82.4 °F 90.9 °F 77.0 °F 84% 29.83 in 3.7 mi WNW 10.4 mph - N/A   Mostly Cloudy
1:00 PM 84.2 °F 94.1 °F 77.0 °F 79% 29.83 in 3.7 mi WNW 11.5 mph - N/A   Mostly Cloudy
1:30 PM 82.4 °F 90.9 °F 77.0 °F 84% 29.80 in 3.7 mi WNW 9.2 mph - N/A   Partly Cloudy
2:00 PM 84.2 °F 94.1 °F 77.0 °F 79% 29.77 in 3.7 mi NNW 10.4 mph - N/A   Mostly Cloudy
2:30 PM 84.2 °F 94.1 °F 77.0 °F 79% 29.77 in 3.7 mi NNW 6.9 mph - N/A   Mostly Cloudy
3:00 PM 82.4 °F 90.9 °F 77.0 °F 84% 29.74 in 3.7 mi NW 9.2 mph - N/A   Mostly Cloudy
3:30 PM 82.4 °F 90.9 °F 77.0 °F 84% 29.74 in 3.7 mi NW 10.4 mph - N/A   Mostly Cloudy
4:00 PM 82.4 °F 90.9 °F 77.0 °F 84% 29.74 in 3.7 mi WNW 8.1 mph - N/A   Mostly Cloudy
4:30 PM 82.4 °F 90.9 °F 77.0 °F 84% 29.74 in 3.7 mi WNW 8.1 mph - N/A   Mostly Cloudy
5:00 PM 82.4 °F 90.9 °F 77.0 °F 84% 29.74 in 3.7 mi NW 8.1 mph - N/A   Mostly Cloudy
5:30 PM 82 °F - 76 °F 78% 29.76 in 2 mi NW 6.9 mph - -   Haze
5:30 PM 82.4 °F 90.9 °F 77.0 °F 84% 29.74 in 3.1 mi NW 6.9 mph - N/A   Haze
6:00 PM 82.4 °F 90.9 °F 77.0 °F 84% 29.74 in 3.1 mi NW 8.1 mph - N/A   Haze
6:30 PM 80.6 °F 87.1 °F 77.0 °F 89% 29.74 in 3.1 mi NW 9.2 mph - N/A   Haze
7:00 PM 80.6 °F 87.1 °F 77.0 °F 89% 29.77 in 2.5 mi NW 6.9 mph - N/A   Haze
7:30 PM 80.6 °F 87.1 °F 77.0 °F 89% 29.77 in 2.5 mi NW 6.9 mph - N/A   Haze
8:00 PM 80.6 °F 87.1 °F 77.0 °F 89% 29.77 in 2.5 mi NW 6.9 mph - N/A   Haze
8:30 PM 80.6 °F 87.1 °F 77.0 °F 89% 29.80 in 2.5 mi NNW 6.9 mph - N/A   Haze
9:30 PM 80.6 °F 87.1 °F 77.0 °F 89% 29.80 in 2.5 mi NNW 6.9 mph - N/A   Haze
10:00 PM 80.6 °F 87.1 °F 77.0 °F 89% 29.83 in 2.5 mi NNW 5.8 mph - N/A   Haze
11:00 PM 80.6 °F 87.1 °F 77.0 °F 89% 29.83 in 2.5 mi NNW 5.8 mph - N/A   Haze
11:30 PM 80.6 °F 87.1 °F 77.0 °F 89% 29.83 in 1.9 mi NNW 4.6 mph - N/A   Haze